STARLINK-34751 (65338 NORAD) Tracking and Keplerian Element Data

This shows tracking and keplerian element data for the satellite.

Feedback or suggestion? Click here.




ElementValue
Catalog65338
NameSTARLINK-34751
Epoch Orbit1889
Epoch Day353.91389336
Epoch Year2025
RAAN217.2284
Inclination53.1569
Eccentricity0.0001923
Argument of Perigee92.5592
Mean Anonmoly267.5629
Mean Motion15.30202596
Decay Rate0.00014157
L11 65338U 25189R 25353.91389336 .00014157 00000+0 48914-3 0 9996
L22 65338 53.1569 217.2284 0001923 92.5592 267.5629 15.30202596 18895



Live tracking and technical data element details for STARLINK-34751 (NORAD 65338). STARLINK-34751 can be tracked NOW for your location showing map with azimuth and elevation plus other details from your city location.







IsCatalogInMostPopularTable: catalog: 65338, numindb: 7
Update: records affected: 1



GetName: 65338 STARLINK-34751

Hit Count: updated at: Sat, 11 Apr 2026 21:59:47 GMT